Location: Leeds
(37.2390°N, 113.3580°W)
Time: 01:31:51
(UTC-06:00)

Daily predictions for brighter satellites

Satellite Brightness Start Highest point End
(mag) Time Altitude Azimuth Time Altitude Azimuth Time Altitude Azimuth
Cosmos 2333 Rocket 3.8 00:14:46 28° NNE 00:14:46 28° NNE 00:17:24 10° NNE
NOSS 3-2 (C) 4.2 00:07:04 10° NNW 00:13:52 66° NNE 00:13:52 66° NNE
FALCON 9 R/B 4.4 00:32:09 66° S 00:33:18 67° SSE 01:15:24 10° E
Cosmos 2237 Rocket 4.1 00:38:56 25° N 00:38:56 25° N 00:41:12 10° NNE
CENTAUR R/B 3.6 00:44:41 10° NNW 00:51:46 51° NE 00:51:46 51° NE
USA 215 4.5 01:00:30 33° NE 01:00:50 33° NNE 01:06:32 10° NNW
Cosmos 2278 Rocket 4.4 01:11:34 10° NW 01:13:15 19° NW 01:13:15 19° NW
SL-16 R/B 4.2 01:45:21 24° N 01:45:21 24° N 01:47:42 10° N
Cosmos 1943 Rocket 4.3 02:09:34 10° N 02:12:38 21° NE 02:12:38 21° NE
Cosmos 2369 Rocket 4.0 02:20:44 10° N 02:23:26 27° N 02:23:26 27° N
ADEOS Rocket 3.9 03:05:16 10° NNE 03:08:42 40° NNE 03:08:42 40° NNE
COSMOS 2406 4.4 03:29:09 35° E 03:29:09 35° E 03:33:28 10° NE
Cosmos 2098 Rocket 4.3 03:32:56 55° NE 03:32:56 55° NE 03:37:12 10° NNE
Cosmos 1125 Rocket 4.1 03:50:18 10° NNW 03:54:26 53° NNE 03:54:26 53° NNE
Cosmos 1943 Rocket 4.0 03:52:30 10° NW 03:54:06 19° NW 03:54:06 19° NW
SL-16 R/B 2.4 04:00:43 81° WNW 04:00:43 81° WNW 04:06:42 10° NNW
Resurs 1-4 Rocket 2.4 03:56:09 10° NNE 04:00:30 62° N 04:00:30 62° N
Cosmos 1821 Rocket 4.4 04:04:53 49° NW 04:04:53 49° NW 04:10:10 10° N
Cosmos 2123 Rocket 3.8 03:58:58 10° N 04:05:15 89° E 04:05:32 83° SSE
Cosmos 1656 Rocket 3.7 03:59:54 10° NNW 04:05:18 78° NNE 04:05:18 78° NNE
BREEZE-M DEB (TANK) 3.9 04:05:59 64° WSW 04:06:38 66° SW 04:25:43 10° SE
CZ-2D R/B 2.3 04:06:54 10° N 04:11:34 61° NNW 04:11:34 61° NNW
Centaur D AC-29 3.8 04:15:46 28° SSE 04:15:46 28° SSE 04:29:01 10° ESE
Cosmos 1934 Rocket 4.2 04:19:10 51° WNW 04:19:10 51° WNW 04:24:38 10° N
Cosmos 1633 Rocket 4.3 04:18:27 10° N 04:22:34 39° E 04:23:50 31° ESE
USA 229 DEB 3.8 04:17:25 10° NNW 04:24:39 80° ENE 04:32:00 10° SE
USA 229 3.9 04:17:32 10° NNW 04:24:45 80° ENE 04:32:05 10° SE
Cosmos 292 Rocket 3.8 04:24:57 76° ENE 04:24:57 76° ENE 04:29:34 10° NNE
Cosmos 1605 Rocket 4.0 04:32:11 57° WSW 04:32:56 61° W 04:39:18 10° N
ARIANE 5 R/B 2.9 04:28:02 10° N 04:32:51 50° WNW 04:32:51 50° WNW
UNKNOWN OBJECT B 3.3 04:32:06 10° N 04:35:28 59° N 04:35:28 59° N
Cosmos 1400 Rocket 4.5 04:33:00 10° NNW 04:34:44 25° NNW 04:34:44 25° NNW
Cosmos 1726 3.0 04:38:31 43° N 04:38:31 43° N 04:41:08 10° N
MOZ.5/SAFIR/RUBIN 5/SL-8 3.6 04:39:35 72° WNW 04:39:35 72° WNW 04:44:02 10° NNW
SL-27 R/B 3.6 04:41:53 39° NNE 04:41:53 39° NNE 04:44:09 10° NNE
Cosmos 1328 Rocket 4.0 04:42:22 43° SE 04:43:23 56° E 04:47:38 10° NNE
Shenzhou-11 Module 4.1 04:46:46 24° E 04:46:46 24° E 04:48:21 10° E
Hubble Space Telescope 2.9 04:48:18 16° SE 04:48:18 16° SE 04:49:49 10° ESE
ADEOS II 2.9 04:46:55 10° NNE 04:51:59 48° E 04:55:48 17° SSE
Cosmos 2221 4.3 04:54:47 20° NW 04:54:47 20° NW 04:56:57 10° NNW
Cosmos 1666 Rocket 3.5 04:51:15 10° NNW 04:55:40 67° W 04:56:02 63° SW
Cosmos 1805 Rocket 4.5 04:53:25 10° NNW 04:56:29 33° WNW 04:56:29 33° WNW
NOSS 3-1 (C) 4.4 04:51:48 10° NNW 04:59:29 70° NE 05:07:55 10° SE
In-Cosmos 22 Rocket 4.3 04:54:11 10° N 04:59:33 68° E 05:04:50 10° SSE
Kakehashi 4.2 05:00:13 34° SSW 05:02:01 44° SSE 05:09:07 10° E
Meteor 2-2 Rocket 4.3 04:58:48 29° S 05:02:03 88° W 05:08:07 10° N
Cosmos 1933 Rocket 4.4 05:00:08 10° N 05:04:29 51° E 05:08:48 10° SSE
COSMOS 2487 4.5 05:02:35 15° SSE 05:04:42 25° E 05:07:41 10° NE
Cosmos 1802 Rocket 4.0 05:02:41 18° S 05:07:27 83° E 05:13:44 10° N
BREEZE M DEB (TANK) 3.4 05:05:41 15° NW 05:08:51 89° NNE 05:22:32 10° SE
Cosmos 773 Rocket 3.9 05:06:32 33° SSW 05:08:58 87° WNW 05:14:17 10° NNE
Cosmos 2100 Rocket 4.0 05:05:50 25° SSW 05:09:42 75° W 05:16:06 10° N
OAO 1 4.5 05:09:56 37° WSW 05:12:09 72° S 05:17:38 10° E
COSMOS 2406 4.2 05:11:14 26° W 05:12:38 29° WNW 05:17:32 10° N
Okean O Rocket 2.6 05:10:15 10° NNE 05:14:30 46° E 05:18:44 10° S
Cosmos 1151 Rocket 3.0 05:15:14 22° S 05:17:58 79° E 05:22:16 10° N
Cosmos 1833 Rocket 3.5 05:14:04 12° S 05:19:11 50° ESE 05:24:37 10° NNE
Meteor 2-10 4.4 05:19:23 27° SW 05:22:21 55° WNW 05:27:54 10° N
Cosmos 1300 3.6 05:22:37 29° WNW 05:22:37 29° WNW 05:25:58 10° NNW
Sich 1 4.1 05:27:58 10° NW 05:31:31 24° W 05:31:36 24° W
Cosmos 2173 Rocket 4.3 05:31:44 19° SSW 05:36:07 49° W 05:42:15 10° N
Cosmos 1455 2.2 05:35:24 10° S 05:39:05 79° E 05:42:50 10° N
Cosmos 2278 3.9 05:33:42 10° NNW 05:39:22 77° ENE 05:45:00 10° SSE
Cosmos 1315 Rocket 4.3 05:37:21 10° NW 05:39:53 19° W 05:39:53 19° W
Cosmos 1470 Rocket 3.9 05:43:57 10° NNW 05:48:00 40° W 05:52:02 10° SSW
Cosmos 2228 Rocket 4.0 05:46:16 20° WSW 05:48:21 29° WNW 05:52:16 10° NNW
PSLV R/B 3.8 05:47:33 12° WNW 05:50:23 52° NNE 05:53:34 10° E
Cosmos 1697 Rocket 3.7 05:45:54 10° NNW 05:51:26 51° ENE 05:56:55 10° SE
Tiangong 2 1.1 05:51:27 22° WSW 05:53:22 87° SSE 05:56:36 10° ENE
CZ-4B DEB 4.2 05:47:54 10° N 05:53:27 80° WNW 05:58:56 10° SSW
Cosmos 1515 Rocket 4.5 05:52:15 17° SW 05:54:45 30° WNW 05:58:39 10° NNW
Cosmos 482 Debris 4.5 05:53:00 10° NW 05:55:38 58° NE 05:59:59 10° ESE
Cosmos 1869 4.0 05:52:33 10° S 05:56:24 55° E 06:00:18 10° NNE
Cosmos 923 Rocket 4.3 05:58:17 12° SW 06:02:59 47° WNW 06:08:03 10° N
Cosmos 2082 Rocket 2.2 05:58:33 10° SSW 06:04:06 65° WNW 06:09:43 10° NNE
CZ-4B R/B 4.0 06:01:34 10° NNE 06:05:22 69° E 06:09:01 10° S
IRS-1C Rocket 4.1 06:00:38 10° N 06:05:53 69° WNW 06:11:06 10° SSW
CZ-4B R/B 3.9 06:05:16 10° N 06:09:16 33° WNW 06:13:20 10° SW
Cosmos 1869 Rocket 3.8 06:05:21 10° N 06:09:50 78° E 06:14:16 10° S
Meteor 1-31 Rocket 2.8 06:06:02 10° NNE 06:09:59 87° ESE 06:13:56 10° SSW
MTI 4.3 06:08:48 10° SSE 06:11:58 65° ENE 06:15:09 10° N
Meteor 2-3 Rocket 4.0 06:06:47 10° NNW 06:12:09 46° W 06:17:32 10° SSW
Lacrosse 5 2.2 06:07:24 10° NW 06:12:29 74° NE 06:17:33 10° SE
Meteor PRIRODA 3.6 06:09:23 10° N 06:13:01 66° WNW 06:16:38 10° SSW
CRYOSAT 2 4.5 06:08:43 10° N 06:13:36 82° E 06:18:25 10° S
CZ-2C R/B 3.6 06:14:26 10° S 06:18:50 75° WSW 06:23:18 10° NNW
NOSS 3-1 (A) 4.3 06:13:11 10° NW 06:20:47 54° WSW 06:29:00 10° S
Landsat 4 4.1 06:17:33 10° S 06:21:03 39° W 06:24:35 10° NNW
CZ-4B R/B 3.5 06:16:32 10° N 06:21:45 46° WNW 06:26:51 10° SW
Shenzhou-11 Module 2.8 06:18:53 10° W 06:21:52 44° NNW 06:24:50 10° ENE
Cosmos 1892 3.9 06:18:51 10° NW 06:21:56 23° W 06:25:01 10° SW
Cosmos 1680 Rocket 4.0 06:17:05 10° SW 06:22:04 42° WNW 06:27:07 10° N
Hubble Space Telescope 2.2 06:24:12 10° SW 06:27:33 24° S 06:30:54 10° SE
Feng Yun 1-1 Rocket 4.4 06:24:27 10° NNE 06:30:08 81° ESE 06:35:37 10° SSW
Cosmos 2084 3.3 06:27:09 10° SW 06:31:13 67° NW 06:35:06 10° NNE
ADEOS II 3.5 06:27:38 10° NNW 06:31:19 20° WNW 06:35:01 10° WSW
